SCP
0 0 0 0 0 0 0 0 -0 0 0 0 0 0 -0 0 0 0 0 0 0 1 2 4 8 11 12 12 13 13 12 10 9 7 7 7 6 5 3 2 1 1 1 0
0 0 0 0 0 0 0 0 -0 0 0 0 0 0 0 0 0 0 0 0 0 1 2 5 10 13 14 14 15 14 13 11 9 8 7 6 5 3 2 1 1 0 0 0
0 -0 -0 -0 -0 0 0 0 0 0 0 0 0 0 0 0 0 0 0 0 0 1 3 7 11 15 17 17 17 15 14 11 9 8 6 5 3 2 1 0 0 0 0 0
-0 -0 -0 -0 -0 -0 0 0 0 0 0 0 0 0 0 0 0 0 0 0 0 1 3 7 12 16 18 18 16 14 11 9 8 6 5 3 2 1 0 0 0 0 0 0
-0 -0 -0 -0 -0 -0 -0 0 0 0 0 0 0 0 0 0 0 0 0 0 0 1 3 7 12 14 15 14 12 10 8 6 5 4 4 2 1 1 0 0 0 0 0 0
-0 -0 -0 -0 -0 -0 -0 0 0 0 0 0 0 0 0 0 0 0 0 0 1 2 4 7 10 10 9 8 7 5 4 3 3 3 2 2 1 0 0 0 0 0 0 0
-0 -0 -0 -0 -0 -0 0 0 -0 -0 -0 -0 0 0 0 0 0 0 0 1 1 3 5 6 7 6 5 4 3 2 2 1 1 1 1 1 0 0 0 0 0 0 0 0
-0 -0 -0 -0 -0 0 0 0 -0 -0 -0 -0 0 0 0 0 0 0 0 1 2 3 4 5 4 3 2 2 1 1 1 0 0 0 0 0 0 0 0 0 0 0 0 0
-0 -0 -0 -0 -0 0 -0 -0 -0 -0 0 0 0 0 0 0 0 0 0 1 2 3 4 4 3 2 1 1 1 0 0 0 0 0 0 0 0 0 0 0 0 0 0 0
-0 -0 0 0 0 0 -0 -0 -0 0 0 0 0 0 0 0 0 0 0 1 2 3 3 3 2 1 1 0 0 0 0 0 0 0 0 0 0 0 0 0 0 0 0 0
-0 0 0 0 0 0 -0 -0 0 0 0 0 0 0 0 0 0 0 0 1 3 4 3 2 1 0 0 0 0 0 0 0 0 0 0 0 0 0 0 0 0 0 0 0
0 0 0 0 0 0 0 0 0 0 0 0 0 0 0 0 0 0 1 2 3 3 2 1 1 0 0 0 0 0 0 0 0 0 0 0 0 0 0 0 0 0 0 0
0 0 0 0 0 0 0 0 0 0 0 0 0 0 0 0 0 0 1 2 2 2 1 1 0 0 0 0 0 0 0 0 0 0 0 0 0 0 0 0 0 0 0 0
0 0 0 0 0 0 0 0 0 0 0 0 0 0 0 0 0 0 1 1 1 1 1 0 0 0 0 0 0 0 0 0 0 0 0 0 0 0 0 0 0 0 0 0
0 0 0 0 0 0 0 0 0 0 0 0 0 0 0 0 1 1 1 1 1 1 1 0 0 0 0 0 0 0 0 0 0 0 0 0 0 0 0 0 0 0 0 0
0 0 0 0 0 0 0 0 0 0 0 0 0 0 1 1 1 2 2 1 1 1 1 0 0 0 0 0 0 0 0 0 0 0 0 0 0 0 0 0 0 0 0 0
0 0 0 0 0 0 0 0 0 0 0 0 0 0 1 1 1 1 1 1 1 1 0 0 0 0 0 0 0 0 0 0 0 0 0 0 0 0 0 0 0 0 0 0
0 0 0 0 0 0 0 0 0 0 0 0 0 0 0 0 0 1 1 1 0 0 0 0 0 0 0 0 0 0 0 0 0 0 0 0 0 0 0 0 0 0 0 0
0 0 0 0 0 0 0 0 0 0 0 0 0 0 0 0 0 0 0 0 0 0 0 0 0 0 0 0 0 0 0 0 0 0 0 0 0 0 0 0 0 0 0 0
0 0 0 0 0 0 0 0 0 0 0 0 0 0 0 0 0 0 0 0 0 0 0 0 0 0 0 0 0 0 0 0 0 0 0 0 0 0 0 0 0 0 0 0
0 0 0 0 0 0 0 0 0 0 0 0 0 0 0 0 0 0 0 0 0 0 0 0 0 0 0 0 0 0 0 0 0 0 0 0 0 0 0 0 0 0 0 0
0 0 0 0 0 0 0 0 0 0 0 0 0 0 0 0 0 0 0 0 0 0 0 0 0 0 0 0 0 0 0 0 0 0 0 0 0 0 0 0 0 0 0 0
0 0 0 0 0 0 0 0 0 0 0 0 0 0 0 0 0 0 0 0 0 0 0 0 0 0 0 -0 -0 -0 -0 0 0 0 0 0 0 0 0 0 0 0 0 0
0 0 0 0 0 0 0 0 0 0 0 0 0 0 0 0 0 0 0 0 0 0 0 0 0 0 -0 -0 -0 -0 -0 0 0 0 0 0 0 0 0 0 0 0 0 0
0 0 0 0 0 0 0 0 0 0 0 0 0 0 0 0 0 0 0 0 -0 -0 -0 -0 -0 -0 -0 -0 -0 -0 0 0 0 0 0 0 0 0 0 0 0 0 0 0
0 0 0 0 0 0 0 0 0 0 0 0 0 0 0 0 0 0 -0 -0 -0 -0 -0 -0 -0 -0 -0 -0 0 0 0 0 0 0 0 0 0 0 0 0 0 0 0 -0
Wind_Speed
16 15 16 18 20 20 21 22 20 18 20 21 20 18 15 16 12 13 13 13 13 11 9 11 15 15 11 11 11 10 11 11 8 7 7 6 7 6 6 5 6 6 6 6
16 20 20 19 19 20 21 21 21 17 15 14 13 14 13 14 15 13 14 13 12 10 5 10 17 18 17 13 13 10 9 11 8 6 5 5 7 6 6 6 6 6 6 4
22 18 21 21 19 18 18 17 17 17 16 17 17 17 15 15 19 21 17 16 15 12 6 8 15 18 17 14 12 10 9 9 7 8 6 7 6 6 5 6 5 5 6 5
21 21 14 12 16 16 13 13 15 16 16 15 17 17 16 17 21 23 22 20 18 14 10 8 12 14 14 12 9 8 8 8 7 8 8 9 7 6 6 5 4 5 5 4
18 19 17 15 13 13 13 13 14 14 14 16 17 18 17 17 19 16 16 19 17 13 10 11 14 14 13 12 10 10 10 9 7 6 8 7 7 6 5 6 5 5 4 3
20 17 15 15 14 13 12 12 13 13 13 17 17 20 19 17 19 16 14 11 8 8 8 14 16 15 13 12 12 11 11 9 7 7 6 7 8 8 8 6 5 4 5 4
21 21 18 13 13 13 13 11 9 12 13 17 19 19 17 16 17 13 6 2 4 9 15 17 16 15 13 13 12 11 11 10 8 7 7 7 7 7 6 5 4 1 3 5
20 19 21 18 14 13 14 15 12 13 13 13 11 9 7 7 6 4 2 3 7 13 16 17 15 14 13 12 12 11 11 9 8 8 7 6 6 4 4 3 3 2 4 7
17 16 17 21 18 17 16 14 16 15 17 17 15 17 16 10 8 7 6 5 5 13 17 18 16 14 13 12 10 10 10 9 8 8 7 6 4 5 6 4 2 4 4 3
12 13 14 10 16 18 18 15 11 12 14 15 15 16 10 11 10 4 3 2 7 17 18 17 15 13 12 11 10 10 9 9 8 7 5 6 5 6 4 3 5 5 4 3
7 10 15 12 11 13 14 16 14 13 13 14 13 8 4 5 7 7 5 3 14 19 19 17 14 14 14 12 11 10 9 8 6 5 5 6 4 4 3 3 4 4 2 1
8 8 13 16 15 14 15 16 14 12 14 14 14 10 6 9 13 16 18 10 14 18 18 17 16 15 14 12 10 9 7 6 6 5 5 4 3 2 1 3 3 2 1 1
10 5 9 13 14 15 13 13 14 13 10 10 12 7 9 12 13 15 16 15 9 14 17 16 15 14 13 11 9 7 6 5 5 6 5 3 3 2 2 3 2 1 1 2
6 7 11 14 10 8 10 11 13 13 12 11 12 9 7 8 8 7 8 10 8 11 14 15 14 13 12 10 8 7 6 5 5 5 5 4 3 3 2 2 2 2 2 3
5 10 13 17 19 16 14 12 10 11 13 13 12 9 10 8 8 8 8 9 10 12 14 14 14 13 13 11 9 9 8 7 6 6 5 4 2 1 1 2 3 4 5 6
5 8 12 16 17 17 17 17 16 15 16 16 15 7 12 13 16 15 10 7 8 11 13 14 14 14 13 12 11 11 9 8 7 6 4 2 1 2 4 3 4 5 6 6
4 5 9 13 15 16 18 17 17 16 11 10 8 11 13 15 17 16 12 9 9 11 13 14 13 13 12 12 11 10 8 6 4 3 2 1 2 4 4 5 6 6 5 6
6 8 7 11 13 16 11 5 5 4 9 11 10 11 11 13 16 18 16 13 13 14 14 14 13 13 12 11 9 7 5 2 0 0 1 3 3 4 4 5 6 5 5 5
8 7 8 10 13 14 6 6 6 4 7 13 11 10 10 6 10 15 15 14 14 14 13 13 13 12 10 8 6 4 1 1 2 3 4 4 5 5 6 7 7 6 5 4
7 7 8 10 11 9 3 5 6 5 4 11 10 9 9 9 4 6 10 12 13 13 12 12 11 10 8 5 2 1 2 2 3 5 5 5 5 5 6 6 6 5 4 4
8 8 10 11 11 4 6 6 6 4 4 8 8 8 7 7 8 10 11 12 13 13 13 11 10 7 4 2 2 2 4 4 5 5 5 5 4 4 7 5 3 4 4 4
5 5 7 7 9 3 9 7 7 7 6 7 7 7 11 13 13 13 13 13 13 12 11 9 7 5 3 3 4 5 5 5 4 4 5 5 5 6 6 4 3 3 4 4
6 4 3 2 1 3 5 6 7 7 7 7 5 8 15 15 14 14 13 12 11 10 8 6 6 6 4 4 5 6 4 3 3 4 4 5 7 6 5 4 4 4 4 5
5 6 6 5 3 3 5 6 8 8 8 7 8 12 16 16 15 14 12 10 9 8 7 7 7 7 6 6 5 4 3 3 3 3 2 5 6 6 5 4 5 5 6 6
5 5 6 8 7 5 8 9 9 9 11 12 13 14 16 17 15 14 11 10 8 8 7 6 7 7 7 6 5 5 4 3 2 2 2 5 6 5 4 4 4 5 5 4
6 5 5 5 6 5 5 6 7 11 12 14 16 16 14 15 14 13 11 9 8 7 7 7 7 7 7 7 7 7 6 6 5 5 5 5 5 4 3 2 2 2 1 3
Wind_Direction
207 222 226 226 224 238 252 261 262 251 238 242 230 232 239 255 230 224 239 245 245 235 201 168 148 140 136 141 159 164 158 155 157 155 163 148 138 123 107 101 94 90 84 69
214 223 234 239 237 232 241 257 269 277 281 273 258 234 239 258 269 246 233 241 255 256 212 156 144 147 154 168 171 164 156 155 161 153 149 136 126 116 108 101 96 93 88 80
229 231 222 230 246 245 243 250 263 274 281 279 273 257 244 250 265 267 251 236 239 248 224 160 153 155 158 165 162 162 157 156 157 138 122 112 104 111 115 122 114 105 105 92
233 243 245 230 237 244 246 250 260 268 272 272 272 271 254 243 242 245 246 240 231 233 225 185 151 141 141 140 133 128 132 132 127 125 132 139 143 144 138 133 121 115 108 110
233 234 240 238 241 246 250 257 259 259 260 265 268 272 271 267 260 246 248 238 224 223 211 168 143 129 125 122 115 110 108 108 114 122 132 137 128 122 120 116 124 130 116 115
252 249 236 240 234 232 248 257 262 267 267 261 257 258 263 259 263 255 253 239 202 205 163 131 124 119 115 111 108 107 105 102 102 108 115 120 123 128 129 135 147 161 149 148
247 254 249 234 242 227 223 237 246 241 237 247 247 247 257 260 263 267 273 111 107 106 114 117 119 118 116 114 112 111 110 107 106 108 108 113 118 124 133 142 150 181 146 129
236 233 234 230 223 241 226 226 242 260 268 276 286 280 286 307 294 287 309 107 111 116 119 120 120 120 121 120 120 120 118 118 113 108 105 109 122 136 120 83 107 88 62 89
248 250 228 217 211 220 247 237 238 252 265 274 280 290 292 279 244 220 233 224 188 130 124 122 124 123 124 125 125 125 122 117 113 111 108 103 84 80 87 75 59 90 76 114
268 291 294 231 206 209 227 247 256 256 265 274 281 285 304 350 351 314 282 273 121 119 119 118 120 122 120 118 113 108 110 110 108 110 117 109 94 91 108 112 71 71 76 65
281 282 284 276 223 224 224 230 245 265 271 273 274 278 34 2 341 334 304 247 138 131 125 122 122 117 115 115 115 114 111 111 113 111 99 102 106 120 148 128 126 123 120 143
283 281 276 274 275 268 250 248 242 244 252 261 272 284 11 31 22 16 5 29 113 118 119 121 120 118 120 121 121 119 116 114 110 102 93 95 103 108 114 107 101 115 142 270
341 278 262 266 266 272 267 258 261 266 265 259 264 280 50 33 19 23 32 50 68 106 111 114 117 121 123 123 122 121 117 115 118 117 112 114 117 105 74 81 83 59 2 298
319 285 270 268 286 321 310 297 294 282 264 264 271 298 40 31 356 21 63 80 84 100 112 118 121 121 119 118 116 112 101 93 100 109 109 94 72 72 72 72 60 8 343 322
271 271 270 274 282 284 282 281 289 301 303 300 301 329 43 27 9 32 65 98 115 124 124 125 125 122 118 112 103 90 76 60 58 70 84 89 94 106 74 49 31 24 13 4
218 279 287 280 277 281 282 280 280 275 274 283 294 356 51 39 35 39 49 77 107 119 123 122 120 118 115 108 99 88 73 56 47 46 58 59 23 48 50 41 47 39 24 16
309 284 275 274 277 278 269 273 281 284 315 340 6 39 36 42 42 32 32 55 81 102 110 110 108 104 100 96 92 86 76 59 48 39 36 41 36 57 47 42 45 31 19 21
290 300 296 283 279 264 273 319 348 354 34 26 34 35 42 67 67 46 40 59 78 93 99 100 99 98 95 92 89 87 84 82 119 135 73 64 64 65 57 52 41 32 22 19
226 251 268 273 269 266 272 24 3 342 62 32 26 19 15 49 92 59 47 61 76 86 94 97 99 99 95 91 91 97 110 198 171 118 88 66 54 53 52 48 33 31 14 10
209 220 244 256 264 272 62 26 9 314 104 33 20 12 3 349 345 71 65 77 84 89 94 98 99 97 95 96 103 144 161 131 109 94 79 66 55 55 65 55 33 15 358 9
225 228 237 249 257 266 29 327 305 293 53 22 22 23 34 49 73 100 95 90 93 96 98 100 100 100 106 133 148 120 99 88 83 84 79 65 39 63 83 68 38 8 357 356
264 259 260 260 256 250 21 8 31 33 23 21 34 66 92 101 104 104 103 102 103 102 101 101 102 103 111 116 104 88 80 79 82 84 82 78 59 44 61 60 43 24 2 360
280 306 345 1 354 55 47 49 44 24 15 21 52 97 116 115 113 111 109 109 109 111 116 123 125 122 119 114 107 104 111 118 109 94 88 91 92 74 42 34 38 32 19 17
321 325 299 290 163 94 48 46 47 46 49 59 88 110 118 119 119 117 116 119 127 138 144 142 128 111 100 97 102 108 109 101 88 84 100 113 106 93 66 39 39 36 22 19
302 294 293 286 303 347 44 45 56 73 83 88 94 106 117 120 122 126 131 140 147 147 146 139 125 118 118 122 115 101 87 80 87 79 70 94 88 83 75 62 38 34 56 38
329 327 305 309 7 4 19 47 83 100 102 107 111 113 117 123 129 134 138 144 144 141 140 132 125 120 112 99 82 66 55 47 35 46 53 66 71 68 58 57 124 134 98 171